Weather History for Maple Lake, MN

Change the Weather History Date:

Tuesday, April 23, 2013

  Actual Average (KSTC) Record (KSTC)
Temperature  
Mean Temperature 32 °F 48 °F  
Max Temperature 39 °F 61 °F 88 °F (1913)
Min Temperature 25 °F 36 °F 17 °F (1909)
Degree Days  
Heating Degree Days 33 17  
Month to date heating degree days 512  
Since 1 July heating degree days 8062  
Cooling Degree Days 0 0  
Month to date cooling degree days 0  
Year to date cooling degree days 0  
Moisture  
Dew Point 24 °F    
Average Humidity 70    
Maximum Humidity 96    
Minimum Humidity 42    
Precipitation  
Precipitation 0.01 in 0.09 in 1.19 in (1915)
Month to date precipitation 1.85  
Year to date precipitation 4.64  
Snow  
Snow 0.00 in 0.10 in 2.80 in (1936)
Month to date snowfall 2.7  
Since 1 July snowfall 45.4  
Snow Depth -    
Sea Level Pressure  
Sea Level Pressure 30.14 in    
Wind  
Wind Speed 10 mph (NW)    
Max Wind Speed 14 mph    
Max Gust Speed 20 mph    
Visibility 9 miles    
Events Snow    
T = Trace of Precipitation, MM = Missing Value Source: NWS Daily Summary

Daily Weather History Graph

Daily Weather History Graph

Search for Another Location

Airport:

Trip Planner

Search our weather history database for the weather conditions in past years. The results will help you decide how hot, cold, wet, or windy it might be!

Date:

Astronomy

Apr. 23, 2013 Rise Set
Actual Time 6:16 AM CDT 8:12 PM CDT
Civil Twilight 5:45 AM CDT 8:44 PM CDT
Nautical Twilight 5:06 AM CDT 9:23 PM CDT
Astronomical Twilight 4:24 AM CDT 10:05 PM CDT
Moon 6:03 PM CDT (4/23) 4:51 AM CDT (4/23)
Length of Visible Light 14h 58m
Length of Day
13h 55m
Waxing Gibbous, 94% of the Moon is Illuminated
Apr 23
Waxing Gibbous
Apr 25
Full
May 2
Last Quarter
May 9
New
May 17
First Quarter

Hourly Weather History & Observations

Time (CDT) Temp. Windchill Dew Point Humidity Pressure Visibility Wind Dir Wind Speed Gust Speed Precip Events Conditions
12:16 AM 32.0 °F 22.5 °F 30.9 °F 96% 30.19 in 7.0 mi NNW 12.7 mph - N/A Snow Light Snow
12:36 AM 32.0 °F 23.0 °F 30.9 °F 96% 30.19 in 2.5 mi NNW 11.5 mph - N/A Snow Light Snow
12:56 AM 32.0 °F 23.0 °F 30.7 °F 95% 30.18 in 4.0 mi NNW 11.5 mph - N/A Snow Light Snow
1:16 AM 32.0 °F 22.5 °F 30.6 °F 94% 30.18 in 7.0 mi NNW 12.7 mph 17.3 mph N/A Snow Light Snow
1:36 AM 32.0 °F 25.6 °F 30.7 °F 95% 30.19 in 10.0 mi NW 6.9 mph - N/A Snow Light Snow
1:56 AM 31.6 °F 24.4 °F 30.7 °F 96% 30.20 in 7.0 mi WNW 8.1 mph - N/A Snow Light Snow
2:16 AM 31.6 °F 25.1 °F 30.7 °F 96% 30.19 in 2.5 mi WNW 6.9 mph - N/A Snow Light Snow
2:36 AM 31.1 °F 23.7 °F 30.2 °F 96% 30.19 in 4.0 mi NW 8.1 mph - N/A Snow Light Snow
2:56 AM 31.1 °F 23.1 °F 29.3 °F 93% 30.18 in 7.0 mi NW 9.2 mph - N/A Snow Light Snow
3:16 AM 31.1 °F 21.9 °F 27.9 °F 88% 30.17 in 10.0 mi NNW 11.5 mph - N/A   Overcast
3:36 AM 30.7 °F 21.4 °F 27.5 °F 88% 30.16 in 7.0 mi NNW 11.5 mph - N/A Snow Light Snow
3:56 AM 30.2 °F 21.9 °F 26.2 °F 85% 30.15 in 10.0 mi NNW 9.2 mph - N/A   Scattered Clouds
4:16 AM 29.3 °F 21.5 °F 25.7 °F 86% 30.15 in 10.0 mi NW 8.1 mph - N/A   Clear
4:36 AM 28.9 °F 21.1 °F 25.3 °F 86% 30.16 in 10.0 mi NW 8.1 mph - N/A   Clear
4:56 AM 28.4 °F 19.7 °F 24.6 °F 86% 30.16 in 10.0 mi NW 9.2 mph - N/A   Clear
5:16 AM 27.7 °F 18.8 °F 23.9 °F 86% 30.15 in 10.0 mi NW 9.2 mph - N/A   Clear
5:36 AM 27.3 °F 17.7 °F 23.5 °F 86% 30.16 in 10.0 mi NW 10.4 mph - N/A   Clear
5:56 AM 27.0 °F 19.5 °F 23.0 °F 85% 30.16 in 10.0 mi NW 6.9 mph - N/A   Clear
6:16 AM 26.6 °F 20.0 °F 22.5 °F 84% 30.18 in 10.0 mi NW 5.8 mph - N/A   Clear
6:36 AM 25.9 °F 18.2 °F 22.1 °F 86% 30.18 in 10.0 mi NW 6.9 mph - N/A   Clear
6:56 AM 25.9 °F 19.2 °F 21.7 °F 84% 30.18 in 10.0 mi NW 5.8 mph - N/A   Clear
7:16 AM 26.1 °F 19.4 °F 21.6 °F 83% 30.17 in 10.0 mi NW 5.8 mph - N/A   Clear
7:36 AM 26.4 °F 18.0 °F 21.6 °F 82% 30.17 in 10.0 mi NW 8.1 mph - N/A   Clear
7:56 AM 26.6 °F 18.2 °F 21.6 °F 81% 30.17 in 10.0 mi NW 8.1 mph - N/A   Clear
8:16 AM 27.5 °F 20.2 °F 21.2 °F 77% 30.18 in 10.0 mi NW 6.9 mph - N/A   Clear
8:36 AM 28.4 °F 21.2 °F 21.6 °F 76% 30.18 in 10.0 mi NW 6.9 mph - N/A   Clear
8:56 AM 29.3 °F 20.8 °F 21.7 °F 73% 30.18 in 10.0 mi NW 9.2 mph - N/A   Clear
9:16 AM 30.4 °F 21.5 °F 21.7 °F 70% 30.18 in 10.0 mi NW 10.4 mph - N/A   Clear
9:36 AM 31.1 °F 23.1 °F 22.1 °F 69% 30.18 in 10.0 mi NW 9.2 mph - N/A   Clear
9:56 AM 31.8 °F 22.8 °F 21.9 °F 67% 30.18 in 10.0 mi NNW 11.5 mph - N/A   Clear
10:16 AM 32.5 °F 24.2 °F 21.7 °F 64% 30.18 in 10.0 mi NW 10.4 mph - N/A   Clear
10:36 AM 33.4 °F 25.9 °F 21.9 °F 63% 30.17 in 10.0 mi NW 9.2 mph - N/A   Clear
10:56 AM 34.2 °F 26.8 °F 22.3 °F 62% 30.17 in 10.0 mi NW 9.2 mph - N/A   Clear
11:16 AM 34.7 °F 26.4 °F 21.9 °F 60% 30.16 in 10.0 mi NW 11.5 mph 17.3 mph N/A   Clear
11:36 AM 35.6 °F 27.5 °F 21.9 °F 58% 30.15 in 10.0 mi NW 11.5 mph - N/A   Clear
11:56 AM 36.5 °F 28.2 °F 22.1 °F 56% 30.16 in 10.0 mi NW 12.7 mph - N/A   Clear
12:16 PM 37.0 °F 28.9 °F 23.0 °F 57% 30.15 in 10.0 mi NNW 12.7 mph 17.3 mph N/A   Clear
12:36 PM 37.4 °F 30.3 °F 23.4 °F 57% 30.15 in 10.0 mi NW 10.4 mph - N/A   Clear
12:57 PM 37.8 °F 30.7 °F 23.4 °F 56% 30.14 in 10.0 mi NNW 10.4 mph 17.3 mph N/A   Clear
1:16 PM 38.3 °F 30.9 °F 23.9 °F 56% 30.13 in 10.0 mi NW 11.5 mph - N/A   Clear
1:36 PM 38.3 °F 30.9 °F 23.4 °F 55% 30.12 in 10.0 mi WNW 11.5 mph 16.1 mph N/A   Clear
1:56 PM 38.5 °F 31.1 °F 23.2 °F 54% 30.12 in 10.0 mi WNW 11.5 mph - N/A   Clear
2:16 PM 38.5 °F 30.7 °F 22.8 °F 53% 30.12 in 10.0 mi WNW 12.7 mph 18.4 mph N/A   Clear
2:36 PM 38.7 °F 30.5 °F 22.6 °F 53% 30.12 in 10.0 mi WNW 13.8 mph - N/A   Clear
2:56 PM 38.5 °F 30.7 °F 22.6 °F 53% 30.11 in 10.0 mi West 12.7 mph 17.3 mph N/A   Clear
3:16 PM 38.8 °F 32.1 °F 23.0 °F 53% 30.11 in 10.0 mi West 10.4 mph 19.6 mph N/A   Clear
3:36 PM 38.8 °F 31.6 °F 21.7 °F 50% 30.11 in 10.0 mi WNW 11.5 mph 17.3 mph N/A   Clear
3:56 PM 39.2 °F 32.5 °F 19.8 °F 46% 30.11 in 10.0 mi WNW 10.4 mph 19.6 mph N/A   Clear
4:16 PM 39.4 °F 31.8 °F 20.5 °F 47% 30.10 in 10.0 mi WNW 12.7 mph - N/A   Clear
4:36 PM 39.2 °F 32.5 °F 18.7 °F 44% 30.10 in 10.0 mi WNW 10.4 mph 17.3 mph N/A   Clear
4:56 PM 39.2 °F 31.2 °F 18.0 °F 42% 30.10 in 10.0 mi WNW 13.8 mph 18.4 mph N/A   Clear
5:16 PM 39.4 °F 32.3 °F 20.5 °F 47% 30.10 in 10.0 mi WNW 11.5 mph 17.3 mph N/A   Clear
5:36 PM 38.8 °F 31.2 °F 21.7 °F 50% 30.09 in 10.0 mi WNW 12.7 mph 18.4 mph N/A   Clear
5:56 PM 38.8 °F 31.2 °F 22.3 °F 51% 30.09 in 10.0 mi WNW 12.7 mph - N/A   Clear
6:16 PM 38.5 °F 30.7 °F 22.8 °F 53% 30.09 in 10.0 mi WNW 12.7 mph 17.3 mph N/A   Clear
6:36 PM 38.1 °F 31.2 °F 22.5 °F 53% 30.09 in 10.0 mi WNW 10.4 mph - N/A   Clear
6:56 PM 37.6 °F 29.6 °F 21.9 °F 53% 30.08 in 10.0 mi WNW 12.7 mph - N/A   Clear
7:16 PM 36.9 °F 29.6 °F 22.3 °F 56% 30.08 in 10.0 mi WNW 10.4 mph - N/A   Clear
7:36 PM 36.1 °F 28.7 °F 21.7 °F 56% 30.08 in 10.0 mi WNW 10.4 mph 16.1 mph N/A   Clear
7:57 PM 35.4 °F 28.4 °F 22.1 °F 58% 30.08 in 10.0 mi WNW 9.2 mph - N/A   Clear
8:16 PM 34.7 °F 28.8 °F 22.1 °F 60% 30.08 in 10.0 mi WNW 6.9 mph - N/A   Clear
8:36 PM 33.8 °F 28.6 °F 23.2 °F 65% 30.08 in 10.0 mi West 5.8 mph - N/A   Clear
8:56 PM 33.3 °F 27.9 °F 24.8 °F 71% 30.09 in 10.0 mi West 5.8 mph - N/A   Clear
9:16 PM 33.1 °F 28.7 °F 25.0 °F 72% 30.10 in 10.0 mi West 4.6 mph - N/A   Clear
9:36 PM 32.4 °F 27.9 °F 24.8 °F 74% 30.10 in 10.0 mi West 4.6 mph - N/A   Clear
9:56 PM 32.2 °F 26.7 °F 24.8 °F 74% 30.10 in 10.0 mi West 5.8 mph - N/A   Clear
10:16 PM 32.0 °F 27.5 °F 24.6 °F 74% 30.10 in 10.0 mi West 4.6 mph - N/A   Clear
10:36 PM 31.8 °F 28.5 °F 25.2 °F 76% 30.10 in 10.0 mi West 3.5 mph - N/A   Clear
10:56 PM 31.5 °F 26.8 °F 25.2 °F 78% 30.10 in 10.0 mi West 4.6 mph - N/A   Clear
11:16 PM 30.9 °F 27.5 °F 25.2 °F 79% 30.09 in 10.0 mi West 3.5 mph - N/A   Clear
11:36 PM 30.9 °F 27.5 °F 25.0 °F 79% 30.08 in 10.0 mi West 3.5 mph - N/A   Clear
11:56 PM 30.2 °F 26.7 °F 25.2 °F 82% 30.08 in 10.0 mi West 3.5 mph - N/A   Clear